Flag for U.S.A. Weather past 2 weeks in Wichita, Kansas, U.S.A.

Now
68 °F

Passing clouds.


Feels Like: 68 °F
Forecast: 66 / 85 °F
Wind: 8 mph from Northeast

Location: Wichita Mid-Continent Airport

Current Time: Jul 28, 2014 at 6:42:14 AM

Latest Report: Jul 28, 2014 at 5:53 AM


Visibility: 10 mi

Pressure: 30.15 "Hg

Humidity: 68%

Dew point: 57 °F

Location of WichitaLocation

Historic Weather in Wichita — Graph

°F

Wichita temperature yesterday

Maximum temperature yesterday: 91 °F (at 4:53 PM)
Minimum temperature yesterday: 75 °F (at 11:53 PM)
Average temperature yesterday: 81 °F

Past Weeks' High & Low Weather Summary

 TemperatureHumidityPressure
High103 °F (Jul 26, 3:53 PM)100% (Jul 19, 5:53 AM)30.18 "Hg (Jul 19, 5:53 AM)
Low56 °F (Jul 15, 5:53 AM)24% (Jul 25, 5:53 PM)29.72 "Hg (Jul 25, 6:53 PM)
Average77 °F68%29.98 "Hg
* Reported Jul 13 4:53 AM — Jul 28 4:53 AM, Wichita, Weather by CustomWeather, © 2014

Note: Actual official high and low records may vary slightly from our data, if they occured in-between our weather recording intervals... More about our weather records

Advertising

Wichita weather history for previous 24 hours

 ConditionsComfort  
Time TempWeatherWind HumidityBarometerVisibility
4:53 AM
Jul 28
68 °FPassing clouds.3 mph65%30.14 "Hg10 mi
3:53 AM69 °FPassing clouds.8 mph66%30.14 "Hg10 mi
2:53 AM72 °FPassing clouds.9 mph59%30.14 "Hg10 mi
1:53 AM73 °FClear.7 mph53%30.14 "Hg10 mi
12:53 AM74 °FPassing clouds.7 mph52%30.13 "Hg10 mi
11:53 PM
Jul 27
75 °FPassing clouds.8 mph50%30.12 "Hg10 mi
10:53 PM78 °FPassing clouds.9 mph43%30.11 "Hg10 mi
9:53 PM80 °FPassing clouds.8 mph38%30.09 "Hg10 mi
8:53 PM82 °FPassing clouds.6 mph37%30.05 "Hg10 mi
7:53 PM87 °FPassing clouds.7 mph29%30.04 "Hg10 mi
6:53 PM89 °FPassing clouds.9 mph31%30.04 "Hg10 mi
5:53 PM90 °FScattered clouds.12 mph31%30.05 "Hg10 mi
4:53 PM91 °FScattered clouds.13 mph30%30.04 "Hg10 mi
3:53 PM86 °FScattered clouds.7 mph61%30.05 "Hg10 mi
2:53 PM80 °FPartly sunny.7 mph79%30.06 "Hg7 mi
1:53 PM79 °FLight rain. Cloudy.5 mph79%30.10 "Hg6 mi
12:53 PM82 °FLight rain. Mostly cloudy.8 mph72%30.10 "Hg8 mi
11:53 AM81 °FCloudy.5 mph79%30.08 "Hg7 mi
10:53 AM79 °FLight rain. Cloudy.9 mph79%30.03 "Hg7 mi
9:53 AM79 °FMostly cloudy.10 mph69%30.01 "Hg10 mi
8:53 AM79 °FLight rain. Mostly cloudy.13 mph69%29.98 "Hg8 mi
7:53 AM78 °FLight rain. Mostly cloudy.18 mph74%29.95 "Hg10 mi
6:53 AM79 °FOvercast.28 mph54%29.97 "Hg10 mi
Weather by CustomWeather, © 2014

See weather overviewHow to use our weather pages